| time (UTC) | temp C | wind direction | speed KPH | gust KPH | rain 1hr cm | rain 24hr cm | rain mn cm | humidity % | barometer mb |
| 20260506020022 | 24 | 160 | 3.2 | 3.2 | 0.00 | 0.00 | 0.00 | 91 | 1008.3 |
| 20260506015519 | 24 | 159 | 3.2 | 11.3 | 0.00 | 0.00 | 0.00 | 90 | 1008.3 |
| 20260506015016 | 24 | 131 | 1.6 | 8.0 | 0.00 | 0.00 | 0.00 | 90 | 1008.2 |
| 20260506014514 | 24 | 125 | 3.2 | 4.8 | 0.00 | 0.00 | 0.00 | 90 | 1008.2 |
| 20260506014009 | 24 | 138 | 0.0 | 3.2 | 0.00 | 0.00 | 0.00 | 89 | 1008.3 |
| 20260506013507 | 25 | 124 | 1.6 | 3.2 | 0.00 | 0.00 | 0.00 | 89 | 1008.3 |
| 20260506013004 | 25 | 182 | 3.2 | 4.8 | 0.00 | 0.00 | 0.00 | 88 | 1008.1 |
| 20260506012500 | 25 | 176 | 4.8 | 4.8 | 0.00 | 0.00 | 0.00 | 88 | 1008.0 |
| 20260506011957 | 25 | 124 | 1.6 | 4.8 | 0.00 | 0.00 | 0.00 | 87 | 1008.2 |
| 20260506011454 | 25 | 175 | 3.2 | 4.8 | 0.00 | 0.00 | 0.00 | 86 | 1008.0 |
| 20260506010950 | 25 | 172 | 1.6 | 4.8 | 0.00 | 0.00 | 0.00 | 86 | 1008.0 |
| 20260506010450 | 26 | 207 | 3.2 | 8.0 | 0.00 | 0.00 | 0.00 | 85 | 1008.0 |
| 20260506005945 | 26 | 124 | 1.6 | 4.8 | 0.00 | 0.00 | 0.00 | 84 | 1007.9 |
| 20260506005443 | 26 | 177 | 3.2 | 8.0 | 0.00 | 0.00 | 0.00 | 84 | 1007.9 |
| 20260506004938 | 26 | 154 | 3.2 | 8.0 | 0.00 | 0.00 | 0.00 | 83 | 1007.9 |
| 20260506004437 | 26 | 106 | 1.6 | 16.1 | 0.00 | 0.00 | 0.00 | 83 | 1008.0 |
| 20260506003932 | 26 | 138 | 1.6 | 11.3 | 0.00 | 0.00 | 0.00 | 82 | 1008.2 |
| 20260506003429 | 27 | 125 | 3.2 | 8.0 | 0.00 | 0.00 | 0.00 | 81 | 1008.0 |
| 20260506002926 | 27 | 143 | 4.8 | 8.0 | 0.00 | 0.00 | 0.00 | 81 | 1008.0 |
| 20260506002422 | 27 | 185 | 6.4 | 12.9 | 0.00 | 0.00 | 0.00 | 80 | 1007.9 |
| 20260506001917 | 27 | 184 | 8.0 | 11.3 | 0.00 | 0.00 | 0.00 | 80 | 1008.0 |
| 20260506001415 | 27 | 150 | 1.6 | 11.3 | 0.00 | 0.00 | 0.00 | 80 | 1008.2 |
| 20260506000912 | 27 | 216 | 0.0 | 9.7 | 0.00 | 0.00 | 0.00 | 80 | 1008.0 |
| 20260506000409 | 27 | 177 | 3.2 | 12.9 | 0.00 | 0.00 | 0.00 | 80 | 1008.1 |
| 20260505235906 | 27 | 201 | 3.2 | 9.7 | 0.00 | 0.00 | 0.00 | 80 | 1008.1 |
| 20260505235404 | 27 | 170 | 4.8 | 8.0 | 0.00 | 0.00 | 0.00 | 79 | 1008.1 |
| 20260505234900 | 27 | 110 | 4.8 | 11.3 | 0.00 | 0.00 | 0.00 | 79 | 1008.1 |
| 20260505234358 | 27 | 179 | 3.2 | 14.5 | 0.00 | 0.00 | 0.00 | 79 | 1008.1 |
| 20260505233854 | 27 | 164 | 9.7 | 12.9 | 0.00 | 0.00 | 0.00 | 79 | 1008.2 |
| 20260505233353 | 27 | 191 | 11.3 | 12.9 | 0.00 | 0.00 | 0.00 | 77 | 1008.0 |
| 20260505232850 | 27 | 170 | 4.8 | 9.7 | 0.00 | 0.00 | 0.00 | 78 | 1008.0 |
| 20260505232348 | 27 | 196 | 3.2 | 8.0 | 0.00 | 0.00 | 0.00 | 78 | 1008.1 |
| 20260505231844 | 27 | 118 | 4.8 | 14.5 | 0.00 | 0.00 | 0.00 | 78 | 1007.8 |
| 20260505231341 | 27 | 266 | 6.4 | 11.3 | 0.00 | 0.00 | 0.00 | 78 | 1007.7 |
| 20260505230840 | 27 | 198 | 4.8 | 16.1 | 0.00 | 0.00 | 0.00 | 78 | 1007.9 |
| 20260505230336 | 27 | 198 | 4.8 | 12.9 | 0.00 | 0.00 | 0.00 | 77 | 1007.9 |
| 20260505225833 | 27 | 186 | 8.0 | 12.9 | 0.00 | 0.00 | 0.00 | 77 | 1007.9 |
| 20260505225330 | 27 | 125 | 9.7 | 12.9 | 0.00 | 0.00 | 0.00 | 76 | 1007.8 |
| 20260505224825 | 28 | 199 | 6.4 | 12.9 | 0.00 | 0.00 | 0.00 | 75 | 1007.7 |
| 20260505224324 | 27 | 187 | 11.3 | 16.1 | 0.00 | 0.00 | 0.00 | 75 | 1007.7 |
| 20260505223820 | 27 | 130 | 6.4 | 12.9 | 0.00 | 0.00 | 0.00 | 75 | 1007.6 |
| 20260505223317 | 27 | 190 | 6.4 | 14.5 | 0.00 | 0.00 | 0.00 | 75 | 1007.6 |
| 20260505222813 | 27 | 227 | 12.9 | 16.1 | 0.00 | 0.00 | 0.00 | 75 | 1007.8 |
| 20260505222309 | 27 | 142 | 3.2 | 12.9 | 0.00 | 0.00 | 0.00 | 76 | 1007.7 |
| 20260505221807 | 27 | 137 | 3.2 | 20.9 | 0.00 | 0.00 | 0.00 | 77 | 1007.7 |
| 20260505221303 | 27 | 198 | 6.4 | 20.9 | 0.00 | 0.00 | 0.00 | 76 | 1007.6 |
| 20260505220800 | 28 | 196 | 8.0 | 14.5 | 0.00 | 0.00 | 0.00 | 74 | 1007.5 |
| 20260505220257 | 27 | 147 | 8.0 | 12.9 | 0.00 | 0.00 | 0.00 | 75 | 1007.9 |
| 20260505215755 | 28 | 146 | 3.2 | 22.5 | 0.00 | 0.00 | 0.00 | 75 | 1007.5 |
| 20260505215253 | 28 | 187 | 11.3 | 16.1 | 0.00 | 0.00 | 0.00 | 74 | 1007.8 |
| 20260505214750 | 28 | 199 | 12.9 | 16.1 | 0.00 | 0.00 | 0.00 | 74 | 1007.8 |
| 20260505214248 | 28 | 183 | 14.5 | 16.1 | 0.00 | 0.00 | 0.00 | 74 | 1007.8 |
| 20260505213745 | 27 | 183 | 4.8 | 11.3 | 0.00 | 0.00 | 0.00 | 76 | 1007.8 |
| 20260505213242 | 27 | 187 | 9.7 | 20.9 | 0.00 | 0.00 | 0.00 | 75 | 1007.8 |
| 20260505212738 | 28 | 193 | 9.7 | 16.1 | 0.00 | 0.00 | 0.00 | 74 | 1008.0 |
| 20260505212236 | 27 | 191 | 14.5 | 17.7 | 0.00 | 0.00 | 0.00 | 73 | 1008.3 |
| 20260505211732 | 28 | 179 | 8.0 | 20.9 | 0.00 | 0.00 | 0.00 | 75 | 1008.2 |
| 20260505211230 | 27 | 142 | 8.0 | 14.5 | 0.00 | 0.00 | 0.00 | 76 | 1008.3 |
| 20260505210726 | 27 | 106 | 6.4 | 12.9 | 0.00 | 0.00 | 0.00 | 75 | 1008.2 |
| 20260505210223 | 28 | 126 | 8.0 | 12.9 | 0.00 | 0.00 | 0.00 | 75 | 1008.4 |
| 20260505205720 | 28 | 200 | 14.5 | 17.7 | 0.00 | 0.00 | 0.00 | 74 | 1008.4 |
| 20260505205218 | 28 | 202 | 3.2 | 11.3 | 0.00 | 0.00 | 0.00 | 75 | 1008.4 |
| 20260505204715 | 28 | 135 | 6.4 | 12.9 | 0.00 | 0.00 | 0.00 | 75 | 1008.6 |
| 20260505204213 | 28 | 191 | 9.7 | 12.9 | 0.00 | 0.00 | 0.00 | 74 | 1008.4 |
| 20260505203710 | 27 | 217 | 9.7 | 11.3 | 0.00 | 0.00 | 0.00 | 73 | 1008.5 |
| 20260505203206 | 28 | 159 | 4.8 | 11.3 | 0.00 | 0.00 | 0.00 | 74 | 1008.7 |
| 20260505202702 | 28 | 167 | 6.4 | 17.7 | 0.00 | 0.00 | 0.00 | 73 | 1008.7 |
| 20260505202158 | 28 | 207 | 9.7 | 20.9 | 0.00 | 0.00 | 0.00 | 74 | 1008.9 |
| 20260505201655 | 28 | 155 | 6.4 | 12.9 | 0.00 | 0.00 | 0.00 | 75 | 1008.9 |
| 20260505201153 | 28 | 139 | 11.3 | 16.1 | 0.00 | 0.00 | 0.00 | 73 | 1009.0 |
| 20260505200651 | 27 | 214 | 8.0 | 11.3 | 0.00 | 0.00 | 0.00 | 75 | 1009.0 |
| 20260505200147 | 27 | 231 | 8.0 | 12.9 | 0.00 | 0.00 | 0.00 | 73 | 1009.2 |
| 20260505195643 | 28 | 143 | 4.8 | 9.7 | 0.00 | 0.00 | 0.00 | 72 | 1008.9 |
| 20260505195141 | 27 | 166 | 4.8 | 11.3 | 0.00 | 0.00 | 0.00 | 75 | 1009.0 |
| 20260505194638 | 28 | 191 | 8.0 | 12.9 | 0.00 | 0.00 | 0.00 | 72 | 1009.2 |
| 20260505194134 | 27 | 154 | 3.2 | 12.9 | 0.00 | 0.00 | 0.00 | 74 | 1009.2 |
| 20260505193630 | 27 | 206 | 6.4 | 12.9 | 0.00 | 0.00 | 0.00 | 75 | 1009.2 |
| 20260505193127 | 27 | 199 | 9.7 | 12.9 | 0.00 | 0.00 | 0.00 | 73 | 1009.2 |
| 20260505192626 | 27 | 178 | 8.0 | 16.1 | 0.00 | 0.00 | 0.00 | 74 | 1009.2 |
| 20260505192123 | 27 | 182 | 4.8 | 16.1 | 0.00 | 0.00 | 0.00 | 77 | 1009.4 |
| 20260505191622 | 27 | 155 | 6.4 | 9.7 | 0.00 | 0.00 | 0.00 | 74 | 1009.6 |
| 20260505191119 | 27 | 238 | 4.8 | 12.9 | 0.00 | 0.00 | 0.00 | 75 | 1009.4 |
| 20260505190615 | 27 | 239 | 6.4 | 9.7 | 0.00 | 0.00 | 0.00 | 76 | 1009.4 |
| 20260505190110 | 27 | 189 | 3.2 | 4.8 | 0.00 | 0.00 | 0.00 | 76 | 1009.6 |
| 20260505185607 | 26 | 195 | 8.0 | 11.3 | 0.00 | 0.00 | 0.00 | 75 | 1009.5 |
| 20260505185103 | 27 | 150 | 11.3 | 16.1 | 0.00 | 0.00 | 0.00 | 74 | 1009.7 |
| 20260505184600 | 27 | 199 | 9.7 | 14.5 | 0.00 | 0.00 | 0.00 | 73 | 1009.7 |
| 20260505184057 | 27 | 198 | 9.7 | 16.1 | 0.00 | 0.00 | 0.00 | 76 | 1009.7 |
| 20260505183553 | 26 | 161 | 4.8 | 17.7 | 0.00 | 0.00 | 0.00 | 77 | 1009.8 |
| 20260505183051 | 26 | 204 | 8.0 | 14.5 | 0.00 | 0.00 | 0.00 | 79 | 1010.0 |
| 20260505182547 | 26 | 185 | 6.4 | 11.3 | 0.00 | 0.00 | 0.00 | 78 | 1010.1 |
| 20260505182044 | 25 | 165 | 3.2 | 4.8 | 0.00 | 0.00 | 0.00 | 79 | 1010.1 |
| 20260505181541 | 25 | 205 | 16.1 | 20.9 | 0.00 | 0.00 | 0.00 | 78 | 1010.5 |
| 20260505181038 | 26 | 169 | 9.7 | 16.1 | 0.00 | 0.00 | 0.00 | 79 | 1010.1 |
| 20260505180534 | 25 | 108 | 6.4 | 9.7 | 0.00 | 0.00 | 0.00 | 79 | 1010.3 |
| 20260505180032 | 25 | 136 | 6.4 | 12.9 | 0.00 | 0.00 | 0.00 | 80 | 1010.5 |
| 20260505175532 | 25 | 192 | 9.7 | 20.9 | 0.00 | 0.00 | 0.00 | 80 | 1010.4 |
| 20260505175029 | 25 | 197 | 9.7 | 14.5 | 0.00 | 0.00 | 0.00 | 80 | 1010.7 |
| 20260505174526 | 25 | 217 | 9.7 | 11.3 | 0.00 | 0.00 | 0.00 | 79 | 1010.5 |
| 20260505174022 | 25 | 170 | 6.4 | 11.3 | 0.00 | 0.00 | 0.00 | 80 | 1010.7 |
| 20260505173519 | 25 | 210 | 4.8 | 14.5 | 0.00 | 0.00 | 0.00 | 82 | 1010.7 |
| 20260505173016 | 24 | 183 | 9.7 | 16.1 | 0.00 | 0.00 | 0.00 | 82 | 1010.8 |
| 20260505172514 | 24 | 205 | 6.4 | 11.3 | 0.00 | 0.00 | 0.00 | 83 | 1010.6 |
| 20260505172009 | 24 | 114 | 1.6 | 9.7 | 0.00 | 0.00 | 0.00 | 84 | 1010.6 |
| 20260505171505 | 24 | 249 | 6.4 | 11.3 | 0.00 | 0.00 | 0.00 | 84 | 1010.6 |
| 20260505171002 | 23 | 214 | 9.7 | 11.3 | 0.00 | 0.00 | 0.00 | 84 | 1010.7 |
| 20260505170459 | 24 | 191 | 11.3 | 14.5 | 0.00 | 0.00 | 0.00 | 84 | 1010.7 |
| 20260505165954 | 24 | 149 | 8.0 | 12.9 | 0.00 | 0.00 | 0.00 | 84 | 1010.8 |
| 20260505165450 | 23 | 154 | 3.2 | 9.7 | 0.00 | 0.00 | 0.00 | 86 | 1010.7 |
| 20260505164946 | 23 | 145 | 4.8 | 14.5 | 0.00 | 0.00 | 0.00 | 85 | 1010.6 |
| 20260505164442 | 23 | 136 | 1.6 | 9.7 | 0.00 | 0.00 | 0.00 | 87 | 1010.8 |
| 20260505163940 | 23 | 218 | 8.0 | 12.9 | 0.00 | 0.00 | 0.00 | 86 | 1010.8 |
| 20260505163439 | 23 | 136 | 3.2 | 8.0 | 0.00 | 0.00 | 0.00 | 87 | 1010.9 |
| 20260505162938 | 23 | 182 | 4.8 | 11.3 | 0.00 | 0.00 | 0.00 | 87 | 1010.8 |
| 20260505162433 | 23 | 189 | 6.4 | 12.9 | 0.00 | 0.00 | 0.00 | 86 | 1011.1 |
| 20260505161930 | 23 | 234 | 9.7 | 14.5 | 0.00 | 0.00 | 0.00 | 87 | 1011.0 |
| 20260505161426 | 23 | 165 | 6.4 | 12.9 | 0.00 | 0.00 | 0.00 | 87 | 1011.0 |
| 20260505160924 | 23 | 270 | 4.8 | 17.7 | 0.00 | 0.00 | 0.00 | 87 | 1010.9 |
| 20260505160422 | 22 | 167 | 4.8 | 11.3 | 0.00 | 0.00 | 0.00 | 88 | 1010.9 |
| 20260505152858 | 22 | 205 | 8.0 | 12.9 | 0.00 | 0.00 | 0.00 | 89 | 1010.9 |
| 20260505152355 | 22 | 181 | 1.6 | 9.7 | 0.00 | 0.00 | 0.00 | 89 | 1010.8 |
| 20260505151849 | 22 | 200 | 6.4 | 12.9 | 0.00 | 0.00 | 0.00 | 90 | 1010.9 |
| 20260505151346 | 22 | 189 | 1.6 | 4.8 | 0.00 | 0.00 | 0.00 | 90 | 1010.8 |
| 20260505150843 | 22 | 173 | 8.0 | 11.3 | 0.00 | 0.00 | 0.00 | 90 | 1010.8 |
| 20260505150340 | 22 | 143 | 4.8 | 12.9 | 0.00 | 0.00 | 0.00 | 90 | 1010.9 |
| 20260505140305 | 22 | 136 | 6.4 | 14.5 | 0.00 | 0.00 | 0.00 | 90 | 1010.3 |
| 20260505130228 | 21 | 135 | 8.0 | 12.9 | 0.00 | 0.00 | 0.00 | 91 | 1009.9 |
| 20260505124719 | 21 | 200 | 6.4 | 8.0 | 0.00 | 0.00 | 0.00 | 91 | 1009.7 |
| 20260505124215 | 21 | 158 | 1.6 | 9.7 | 0.00 | 0.00 | 0.00 | 91 | 1009.8 |
| 20260505123711 | 21 | 200 | 9.7 | 14.5 | 0.00 | 0.00 | 0.00 | 91 | 1009.4 |
| 20260505123209 | 21 | 203 | 6.4 | 9.7 | 0.00 | 0.00 | 0.00 | 92 | 1009.5 |
| 20260505122705 | 21 | 194 | 4.8 | 12.9 | 0.00 | 0.00 | 0.00 | 92 | 1009.3 |
| 20260505122202 | 21 | 194 | 11.3 | 12.9 | 0.00 | 0.00 | 0.00 | 92 | 1009.3 |
| 20260505121658 | 21 | 158 | 9.7 | 12.9 | 0.00 | 0.00 | 0.00 | 92 | 1009.3 |
| 20260505121155 | 21 | 147 | 3.2 | 14.5 | 0.00 | 0.00 | 0.00 | 92 | 1009.0 |
| 20260505120651 | 21 | 215 | 6.4 | 9.7 | 0.00 | 0.00 | 0.00 | 92 | 1008.9 |
| 20260505120147 | 21 | 176 | 4.8 | 14.5 | 0.00 | 0.00 | 0.00 | 92 | 1009.0 |
| 20260505115641 | 21 | 150 | 4.8 | 14.5 | 0.00 | 0.00 | 0.00 | 92 | 1009.2 |
| 20260505115139 | 21 | 135 | 1.6 | 9.7 | 0.00 | 0.00 | 0.00 | 92 | 1009.0 |
| 20260505114636 | 21 | 188 | 4.8 | 11.3 | 0.00 | 0.00 | 0.00 | 92 | 1009.0 |
| 20260505114132 | 21 | 190 | 8.0 | 11.3 | 0.00 | 0.00 | 0.00 | 91 | 1008.9 |
| 20260505113629 | 21 | 169 | 6.4 | 9.7 | 0.00 | 0.00 | 0.00 | 91 | 1009.0 |
| 20260505113126 | 21 | 210 | 4.8 | 12.9 | 0.00 | 0.00 | 0.00 | 91 | 1009.0 |
| 20260505112622 | 21 | 194 | 8.0 | 11.3 | 0.00 | 0.00 | 0.00 | 91 | 1009.0 |
| 20260505112120 | 21 | 161 | 9.7 | 14.5 | 0.00 | 0.00 | 0.00 | 91 | 1008.9 |
| 20260505111614 | 21 | 196 | 9.7 | 16.1 | 0.00 | 0.00 | 0.00 | 91 | 1009.0 |
| 20260505111110 | 21 | 183 | 4.8 | 11.3 | 0.00 | 0.00 | 0.00 | 91 | 1008.9 |
| 20260505110606 | 21 | 86 | 4.8 | 14.5 | 0.00 | 0.00 | 0.00 | 91 | 1008.9 |
| 20260505110104 | 21 | 218 | 8.0 | 11.3 | 0.00 | 0.00 | 0.00 | 91 | 1009.0 |
| 20260505102039 | 21 | 204 | 6.4 | 16.1 | 0.00 | 0.00 | 0.00 | 91 | 1009.0 |
| 20260505101537 | 21 | 123 | 1.6 | 11.3 | 0.00 | 0.00 | 0.00 | 91 | 1008.9 |
| 20260505101033 | 21 | 152 | 4.8 | 8.0 | 0.00 | 0.00 | 0.00 | 91 | 1008.9 |
| 20260505100531 | 21 | 195 | 12.9 | 16.1 | 0.00 | 0.00 | 0.00 | 91 | 1009.1 |
| 20260505100027 | 21 | 175 | 4.8 | 12.9 | 0.00 | 0.00 | 0.00 | 91 | 1009.1 |
| 20260505095524 | 21 | 169 | 6.4 | 11.3 | 0.00 | 0.00 | 0.00 | 91 | 1009.3 |
| 20260505095020 | 21 | 172 | 6.4 | 11.3 | 0.00 | 0.00 | 0.00 | 91 | 1009.2 |
| 20260505094517 | 21 | 172 | 4.8 | 14.5 | 0.00 | 0.00 | 0.00 | 91 | 1009.2 |
| 20260505094013 | 21 | 192 | 8.0 | 17.7 | 0.00 | 0.00 | 0.00 | 91 | 1009.2 |
| 20260505093509 | 21 | 172 | 4.8 | 14.5 | 0.00 | 0.00 | 0.00 | 91 | 1009.1 |
| 20260505093007 | 21 | 195 | 6.4 | 17.7 | 0.00 | 0.00 | 0.00 | 90 | 1009.2 |
| 20260505092504 | 21 | 136 | 11.3 | 17.7 | 0.00 | 0.00 | 0.00 | 90 | 1009.3 |
| 20260505092002 | 21 | 223 | 8.0 | 16.1 | 0.00 | 0.00 | 0.00 | 90 | 1009.4 |
| 20260505091459 | 21 | 146 | 8.0 | 12.9 | 0.00 | 0.00 | 0.00 | 90 | 1009.6 |
| 20260505090957 | 21 | 200 | 8.0 | 14.5 | 0.00 | 0.00 | 0.00 | 90 | 1009.4 |
| 20260505090455 | 21 | 267 | 11.3 | 16.1 | 0.00 | 0.00 | 0.00 | 90 | 1009.5 |
| 20260505085952 | 21 | 160 | 11.3 | 17.7 | 0.00 | 0.00 | 0.00 | 90 | 1009.5 |
| 20260505085450 | 21 | 187 | 8.0 | 14.5 | 0.00 | 0.00 | 0.00 | 90 | 1009.5 |
| 20260505084948 | 21 | 214 | 6.4 | 12.9 | 0.00 | 0.00 | 0.00 | 90 | 1009.4 |
| 20260505084446 | 21 | 140 | 3.2 | 16.1 | 0.00 | 0.00 | 0.00 | 90 | 1009.6 |
| 20260505083943 | 21 | 238 | 11.3 | 16.1 | 0.00 | 0.00 | 0.00 | 90 | 1009.5 |
| 20260505083440 | 21 | 147 | 3.2 | 16.1 | 0.00 | 0.00 | 0.00 | 90 | 1009.6 |
| 20260505082937 | 21 | 164 | 4.8 | 14.5 | 0.00 | 0.00 | 0.00 | 90 | 1009.5 |
| 20260505082432 | 21 | 164 | 3.2 | 12.9 | 0.00 | 0.00 | 0.00 | 90 | 1009.8 |
| 20260505081930 | 21 | 192 | 6.4 | 20.9 | 0.00 | 0.00 | 0.00 | 90 | 1010.0 |
| 20260505081427 | 21 | 210 | 12.9 | 17.7 | 0.00 | 0.00 | 0.00 | 90 | 1010.0 |
| 20260505080923 | 21 | 176 | 6.4 | 12.9 | 0.00 | 0.00 | 0.00 | 90 | 1009.8 |
| 20260505080419 | 21 | 185 | 3.2 | 16.1 | 0.00 | 0.00 | 0.00 | 89 | 1010.0 |
| 20260505075915 | 21 | 188 | 6.4 | 25.7 | 0.00 | 0.00 | 0.00 | 89 | 1010.0 |
| 20260505075412 | 21 | 211 | 8.0 | 20.9 | 0.00 | 0.00 | 0.00 | 89 | 1010.1 |
| 20260505074909 | 21 | 214 | 8.0 | 17.7 | 0.00 | 0.00 | 0.00 | 89 | 1009.9 |
| 20260505074406 | 21 | 201 | 8.0 | 16.1 | 0.00 | 0.00 | 0.00 | 89 | 1010.0 |
| 20260505073903 | 21 | 189 | 4.8 | 16.1 | 0.00 | 0.00 | 0.00 | 89 | 1010.1 |
| 20260505073401 | 21 | 203 | 8.0 | 14.5 | 0.00 | 0.00 | 0.00 | 89 | 1010.3 |
| 20260505072858 | 21 | 157 | 8.0 | 16.1 | 0.00 | 0.00 | 0.00 | 89 | 1010.1 |
| 20260505072354 | 21 | 216 | 9.7 | 20.9 | 0.00 | 0.00 | 0.00 | 89 | 1010.1 |
| 20260505071850 | 21 | 197 | 8.0 | 20.9 | 0.00 | 0.00 | 0.00 | 89 | 1010.3 |
| 20260505071347 | 21 | 179 | 4.8 | 12.9 | 0.00 | 0.00 | 0.00 | 90 | 1010.4 |
| 20260505070845 | 21 | 198 | 8.0 | 16.1 | 0.00 | 0.00 | 0.00 | 89 | 1010.5 |
| 20260505070341 | 21 | 193 | 8.0 | 14.5 | 0.00 | 0.00 | 0.00 | 89 | 1010.5 |
| 20260505065836 | 21 | 159 | 8.0 | 20.9 | 0.00 | 0.00 | 0.00 | 89 | 1010.6 |
| 20260505065334 | 21 | 174 | 9.7 | 14.5 | 0.00 | 0.00 | 0.00 | 89 | 1010.6 |
| 20260505064831 | 21 | 180 | 8.0 | 22.5 | 0.00 | 0.00 | 0.00 | 89 | 1010.7 |
| 20260505064327 | 21 | 195 | 11.3 | 16.1 | 0.00 | 0.00 | 0.00 | 90 | 1010.5 |
| 20260505063826 | 21 | 213 | 11.3 | 16.1 | 0.00 | 0.00 | 0.00 | 90 | 1010.7 |
| 20260505063321 | 21 | 188 | 11.3 | 17.7 | 0.00 | 0.00 | 0.00 | 90 | 1010.6 |
| 20260505062818 | 21 | 132 | 3.2 | 20.9 | 0.00 | 0.00 | 0.00 | 89 | 1010.6 |
| 20260505062316 | 21 | 175 | 14.5 | 17.7 | 0.00 | 0.00 | 0.00 | 89 | 1010.7 |
| 20260505061812 | 21 | 187 | 9.7 | 17.7 | 0.00 | 0.00 | 0.00 | 89 | 1010.8 |
| 20260505061311 | 21 | 155 | 4.8 | 22.5 | 0.00 | 0.00 | 0.00 | 90 | 1010.7 |
| 20260505060808 | 21 | 221 | 6.4 | 12.9 | 0.00 | 0.00 | 0.00 | 89 | 1010.9 |
| 20260505060304 | 21 | 195 | 9.7 | 12.9 | 0.00 | 0.00 | 0.00 | 89 | 1011.1 |
| 20260505055800 | 21 | 203 | 8.0 | 14.5 | 0.00 | 0.00 | 0.00 | 89 | 1011.0 |
| 20260505055256 | 21 | 191 | 8.0 | 11.3 | 0.00 | 0.00 | 0.00 | 90 | 1010.9 |
| 20260505054754 | 21 | 180 | 8.0 | 16.1 | 0.00 | 0.00 | 0.00 | 90 | 1010.9 |
| 20260505054251 | 21 | 213 | 8.0 | 12.9 | 0.00 | 0.00 | 0.00 | 90 | 1010.8 |
| 20260505053749 | 21 | 194 | 11.3 | 12.9 | 0.00 | 0.00 | 0.00 | 90 | 1011.0 |
| 20260505053246 | 21 | 181 | 9.7 | 12.9 | 0.00 | 0.00 | 0.00 | 90 | 1011.0 |
| 20260505052743 | 21 | 177 | 6.4 | 16.1 | 0.00 | 0.00 | 0.00 | 91 | 1011.2 |
| 20260505052240 | 21 | 129 | 3.2 | 11.3 | 0.00 | 0.00 | 0.00 | 91 | 1011.0 |
| 20260505051737 | 21 | 206 | 14.5 | 17.7 | 0.00 | 0.00 | 0.00 | 90 | 1010.8 |
| 20260505051235 | 21 | 207 | 8.0 | 16.1 | 0.00 | 0.00 | 0.00 | 90 | 1010.8 |
| 20260505050732 | 21 | 193 | 8.0 | 14.5 | 0.00 | 0.00 | 0.00 | 90 | 1011.0 |
| 20260505050231 | 21 | 180 | 4.8 | 11.3 | 0.00 | 0.00 | 0.00 | 90 | 1010.8 |
| 20260505041700 | 21 | 189 | 4.8 | 9.7 | 0.00 | 0.00 | 0.00 | 88 | 1011.0 |
| 20260505041158 | 22 | 185 | 3.2 | 4.8 | 0.00 | 0.00 | 0.00 | 87 | 1010.9 |
| 20260505040655 | 22 | 199 | 8.0 | 14.5 | 0.00 | 0.00 | 0.00 | 86 | 1010.9 |
| 20260505040152 | 22 | 188 | 6.4 | 9.7 | 0.00 | 0.00 | 0.00 | 86 | 1010.9 |
| 20260505035648 | 22 | 161 | 4.8 | 14.5 | 0.00 | 0.00 | 0.00 | 86 | 1011.1 |
| 20260505035144 | 22 | 171 | 8.0 | 22.5 | 0.00 | 0.00 | 0.00 | 85 | 1011.0 |
| 20260505034641 | 22 | 218 | 4.8 | 17.7 | 0.00 | 0.00 | 0.00 | 85 | 1010.9 |
| 20260505034139 | 22 | 103 | 1.6 | 9.7 | 0.00 | 0.00 | 0.00 | 85 | 1011.0 |
| 20260505033634 | 22 | 146 | 1.6 | 12.9 | 0.00 | 0.00 | 0.00 | 85 | 1011.1 |
| 20260505033133 | 22 | 129 | 9.7 | 16.1 | 0.00 | 0.00 | 0.00 | 84 | 1011.1 |
| 20260505032631 | 22 | 199 | 11.3 | 14.5 | 0.00 | 0.00 | 0.00 | 84 | 1011.2 |
| 20260505032127 | 22 | 200 | 11.3 | 14.5 | 0.00 | 0.00 | 0.00 | 84 | 1011.1 |
| 20260505031624 | 22 | 162 | 3.2 | 12.9 | 0.00 | 0.00 | 0.00 | 83 | 1010.9 |
| 20260505031120 | 22 | 216 | 8.0 | 11.3 | 0.00 | 0.00 | 0.00 | 83 | 1010.9 |
| 20260505030617 | 22 | 143 | 3.2 | 9.7 | 0.00 | 0.00 | 0.00 | 83 | 1011.0 |
| 20260505030113 | 22 | 160 | 3.2 | 14.5 | 0.00 | 0.00 | 0.00 | 82 | 1010.8 |
| 20260505025609 | 22 | 187 | 4.8 | 8.0 | 0.00 | 0.00 | 0.00 | 81 | 1010.7 |
| 20260505025108 | 23 | 190 | 4.8 | 8.0 | 0.00 | 0.00 | 0.00 | 81 | 1010.8 |
| 20260505024605 | 23 | 163 | 4.8 | 11.3 | 0.00 | 0.00 | 0.00 | 80 | 1010.9 |
| 20260505024102 | 23 | 144 | 4.8 | 16.1 | 0.00 | 0.00 | 0.00 | 80 | 1010.9 |
| 20260505023600 | 23 | 124 | 3.2 | 11.3 | 0.00 | 0.00 | 0.00 | 80 | 1010.8 |
| 20260505023057 | 23 | 205 | 6.4 | 17.7 | 0.00 | 0.00 | 0.00 | 79 | 1010.8 |
| 20260505022554 | 23 | 188 | 4.8 | 9.7 | 0.00 | 0.00 | 0.00 | 79 | 1010.9 |
| 20260505022051 | 23 | 207 | 6.4 | 11.3 | 0.00 | 0.00 | 0.00 | 79 | 1010.8 |
| 20260505021548 | 23 | 173 | 6.4 | 9.7 | 0.00 | 0.00 | 0.00 | 79 | 1010.5 |
| 20260505021045 | 23 | 149 | 4.8 | 8.0 | 0.00 | 0.00 | 0.00 | 78 | 1010.4 |
| 20260505020544 | 23 | 159 | 4.8 | 9.7 | 0.00 | 0.00 | 0.00 | 78 | 1010.6 |